Voltar ao catálogo

STARLINK-34709

AtivoComunicaçõesSSO
NORAD 64844·PAYLOAD·🇺🇸 United States

Lançado Jul 19, 2025 de Vandenberg Space Force Base

Loading…

Próximas Passagens (próximas 24 horas)

TLE

AtualizadoSource: CelesTrak SupGP

Época: Sep 15, 2026, 02:26 UTC

1 64844C 25152C   26258.10187500 -.00002269  00000+0 -70420-4 0  2581
2 64844  97.2847 108.6556 0001856  98.3663 184.1767 15.33449108    14

Acompanhe STARLINK-34709 em tempo real com AllMySat

Download on the App Store